Content
SEND FEEDBACK

Daily
Averages
Monthly
Summary
Finland

KOKKOLA, FINLAND


Home > Europe > Finland
Elevation: 82 feet     Latitude: 63 43N     Longitude: 023 08E

WEATHER
 
SELECT A DAY
Number of Records: 252,184;   Date Range: 8/24/98 - 9/28/14
 
SHARE

PRINT THIS DATA

[ ← Previous Day ]
WEATHER ALMANAC - JANUARY 23, 2013
[ Next Day → ]
[ °C ]   °F
Weather ElementAverageHighLow
Temperature12.7 °F15.8 °F (6:20 am)10.4 °F (2:20 am)
Dewpoint11.7 °F15.8 °F (7:20 am)8.6 °F (2:20 am)
Humidity95.7 %100 % (3:20 am)92 % (2:20 am)
Barometer29.74 in29.77 in (12:50 am)29.68 in (10:20 pm)
Wind Speed2.3 mph5.8 mph (6:20 pm)
Weather ElementAverage
Visibility5.6 mi
Wind DirectionSSW (208.5 °)

Weather ElementTotal
Precipitation---
Heating Degree Days51.9 (Base 65)
Averaged from 47 records on January 23, 2013
WEATHER CONDITIONS BREAKOUT
WIND DIRECTION BREAKOUT
WEATHER BY HOUR - JANUARY 23, 2013
[ °C ]   °F
Local TimeTemperatureDewpointHumidityBarometerVisibilityWind DirectionWind SpeedGust SpeedPrecipitationEventsConditions
12:50 AM14.0 °F12.2 °F93 %29.77 inWest (260°)2.3 mphClear
1:20 AM14.0 °F12.2 °F93 %29.77 in0.9 miWest (270°)1.2 mphClear
1:50 AM14.0 °F12.2 °F93 %29.77 inWest (270°)1.2 mphClear
2:20 AM10.4 °F8.6 °F92 %29.77 inWest (270°)1.2 mphClear
2:50 AM10.4 °F8.6 °F92 %29.77 in2.5 miWest (270°)2.3 mphClear
3:20 AM10.4 °F10.4 °F100 %29.77 inWest (280°)2.3 mphClear
3:50 AM14.0 °F12.2 °F93 %29.77 inCalmClear
4:20 AM10.4 °F8.6 °F92 %29.77 inCalmClear
4:50 AM14.0 °F12.2 °F93 %29.77 inSSW (210°)1.2 mphClear
5:20 AM12.2 °F12.2 °F100 %29.77 in6.2 miSSW (200°)1.2 mphOvercast
5:50 AM14.0 °F12.2 °F93 %29.74 in6.2 miSSW (200°)2.3 mphOvercast
6:20 AM15.8 °F14.0 °F93 %29.74 in6.2 miCalmMostly Cloudy
6:50 AM15.8 °F14.0 °F93 %29.74 in6.2 miSSW (210°)1.2 mphSnowLight Snow Showers
7:20 AM15.8 °F15.8 °F100 %29.71 in6.2 miSW (230°)4.6 mphSnowLight Snow Showers
7:50 AM15.8 °F14.0 °F93 %29.74 inWest (270°)1.2 mphClear
8:20 AM14.0 °F14.0 °F100 %29.74 inWSW (250°)1.2 mphClear
8:50 AM10.4 °F10.4 °F100 %29.74 inCalmClear
9:20 AM10.4 °F10.4 °F100 %29.74 in6.2 miCalmScattered Clouds
9:50 AM10.4 °F8.6 °F92 %29.74 in6.2 miCalmMostly Cloudy
10:20 AM10.4 °F8.6 °F92 %29.74 in6.2 miWSW (250°)1.2 mphScattered Clouds
10:50 AM10.4 °F10.4 °F100 %29.74 inWest (280°)1.2 mphClear
11:20 AM10.4 °F8.6 °F92 %29.74 inNW (310°)1.2 mphClear
11:50 AM10.4 °F10.4 °F100 %29.77 inNNW (340°)2.3 mphClear
12:20 PM12.2 °F12.2 °F100 %29.74 inCalmClear
12:50 PM12.2 °F12.2 °F100 %29.77 inCalmClear
1:20 PM10.4 °F8.6 °F92 %29.77 inWSW (240°)1.2 mphClear
1:50 PM10.4 °F8.6 °F92 %29.74 in6.2 miSSW (210°)1.2 mphFogShallow Fog
2:20 PM12.2 °F12.2 °F100 %29.74 in6.2 miSW (230°)1.2 mphFogShallow Fog
2:50 PM12.2 °F12.2 °F100 %29.74 inWSW (250°)2.3 mphClear
3:20 PM15.8 °F15.8 °F100 %29.74 inWSW (240°)3.5 mphClear
3:50 PM12.2 °F10.4 °F92 %29.74 inWSW (240°)2.3 mphClear
4:20 PM12.2 °F10.4 °F92 %29.74 inWSW (240°)2.3 mphClear
4:50 PM12.2 °F10.4 °F92 %29.74 in6.2 miWest (260°)3.5 mphFogShallow Fog
5:20 PM14.0 °F12.2 °F93 %29.74 in6.2 miWSW (250°)3.5 mphFogShallow Fog
5:50 PM14.0 °F14.0 °F100 %29.74 in6.2 miWSW (240°)4.6 mphFogShallow Fog
6:20 PM14.0 °F14.0 °F100 %29.71 inWSW (240°)5.8 mphClear
6:50 PM14.0 °F12.2 °F93 %29.71 inWSW (240°)4.6 mphClear
7:20 PM14.0 °F12.2 °F93 %29.71 inWSW (250°)4.6 mphClear
7:50 PM12.2 °F10.4 °F92 %29.71 inWest (260°)3.5 mphClear
8:20 PM12.2 °F12.2 °F100 %29.71 inWSW (250°)3.5 mphClear
8:50 PM12.2 °F12.2 °F100 %29.71 inWSW (250°)3.5 mphClear
9:20 PM12.2 °F12.2 °F100 %29.71 inWest (260°)3.5 mphClear
9:50 PM12.2 °F12.2 °F100 %29.71 inWSW (250°)4.6 mphClear
10:20 PM14.0 °F12.2 °F93 %29.68 inWest (260°)4.6 mphClear
10:50 PM14.0 °F12.2 °F93 %29.68 inWSW (250°)5.8 mphClear
11:20 PM14.0 °F12.2 °F93 %29.68 inWest (260°)4.6 mphClear
11:50 PM14.0 °F14.0 °F100 %29.68 inWest (260°)4.6 mphClear
Hourly data recorded from EFKK, located miles away from Kokkola, Finland







STORIES FROM OUR PARTNERS